Location: Bletchingley
(51.2333°N, 0.1000°W)
Time: 01:59:52
(UTC+00:00)

SPOT 1/Viking Rocket - Pass Details

Date: 18 September 2020
Orbit: 777 x 794 km, 98.5° (Epoch: 30 October)

Event Time Altitude Azimuth Distance (km) Brightness Sun altitude
Exits shadow 21:14:23 83° 263° (W) 799 3.5 -27.4°
Drops below altitude 10° 21:19:34 10° 344° (NNW) 2,352 6.8 -28.0°
Sets 21:21:53 0° 345° (NNW) 3,283 7.7 -28.2°
